Terug naar catalogus

FENGYUN 1C DEB

ActiefPO
NORAD 29920·DEBRIS·🇨🇳 China

Gelanceerd May 10, 1999 vanaf Taiyuan Satellite Launch Center

Loading…

Volgende Passages (komende 24 uur)

TLE

VerouderendSource: Space-Track

Epoch: Sep 9, 2026, 07:59 UTC

1 29920U 99025HS  26252.33284093  .00001130  00000-0  68638-3 0  9995
2 29920  98.3736  91.0985 0123046 233.7597 125.2149 14.04416993   762

Volg FENGYUN 1C DEB in realtime met AllMySat

Download on the App Store